| time (UTC) | temp F | wind direction | speed MPH | gust MPH | rain 1hr in | rain 24hr in | rain mn in | humidity % | barometer mb |
| 20260510082650 | 72 | 195 | 6.0 | 8.0 | 0.00 | 0.00 | 0.00 | 56 | 1011.0 |
| 20260510082146 | 72 | 207 | 6.0 | 11.0 | 0.00 | 0.00 | 0.00 | 56 | 1011.1 |
| 20260510081641 | 72 | 182 | 5.0 | 8.0 | 0.00 | 0.00 | 0.00 | 56 | 1011.2 |
| 20260510081138 | 71 | 210 | 3.0 | 5.0 | 0.00 | 0.00 | 0.00 | 57 | 1011.2 |
| 20260510080637 | 71 | 192 | 3.0 | 9.0 | 0.00 | 0.00 | 0.00 | 56 | 1011.1 |
| 20260510080134 | 71 | 191 | 4.0 | 6.0 | 0.00 | 0.00 | 0.00 | 56 | 1011.3 |
| 20260510075631 | 71 | 224 | 3.0 | 6.0 | 0.00 | 0.00 | 0.00 | 56 | 1011.3 |
| 20260510075128 | 72 | 187 | 3.0 | 5.0 | 0.00 | 0.00 | 0.00 | 55 | 1011.3 |
| 20260510074625 | 72 | 204 | 4.0 | 5.0 | 0.00 | 0.00 | 0.00 | 54 | 1011.2 |
| 20260510074120 | 72 | 210 | 4.0 | 5.0 | 0.00 | 0.00 | 0.00 | 53 | 1011.5 |
| 20260510073617 | 72 | 198 | 4.0 | 7.0 | 0.00 | 0.00 | 0.00 | 52 | 1011.3 |
| 20260510073114 | 73 | 198 | 5.0 | 6.0 | 0.00 | 0.00 | 0.00 | 52 | 1011.6 |
| 20260510072610 | 73 | 202 | 5.0 | 10.0 | 0.00 | 0.00 | 0.00 | 51 | 1011.6 |
| 20260510072107 | 73 | 206 | 3.0 | 8.0 | 0.00 | 0.00 | 0.00 | 50 | 1011.7 |
| 20260510071603 | 73 | 208 | 7.0 | 13.0 | 0.00 | 0.00 | 0.00 | 49 | 1011.4 |
| 20260510071101 | 73 | 192 | 6.0 | 10.0 | 0.00 | 0.00 | 0.00 | 49 | 1011.6 |
| 20260510070557 | 74 | 202 | 3.0 | 10.0 | 0.00 | 0.00 | 0.00 | 48 | 1011.7 |
| 20260510070054 | 74 | 207 | 6.0 | 10.0 | 0.00 | 0.00 | 0.00 | 48 | 1011.5 |
| 20260510065551 | 75 | 192 | 9.0 | 15.0 | 0.00 | 0.00 | 0.00 | 47 | 1011.6 |
| 20260510065047 | 75 | 198 | 9.0 | 14.0 | 0.00 | 0.00 | 0.00 | 47 | 1011.6 |
| 20260510064543 | 75 | 192 | 12.0 | 16.0 | 0.00 | 0.00 | 0.00 | 46 | 1011.8 |
| 20260510064040 | 76 | 196 | 11.0 | 19.0 | 0.00 | 0.00 | 0.00 | 45 | 1011.6 |
| 20260510063537 | 76 | 192 | 12.0 | 15.0 | 0.00 | 0.00 | 0.00 | 44 | 1011.6 |
| 20260510063034 | 76 | 211 | 11.0 | 17.0 | 0.00 | 0.00 | 0.00 | 44 | 1011.5 |
| 20260510062530 | 76 | 187 | 13.0 | 17.0 | 0.00 | 0.00 | 0.00 | 43 | 1011.3 |
| 20260510062025 | 76 | 188 | 11.0 | 15.0 | 0.00 | 0.00 | 0.00 | 43 | 1011.7 |
| 20260510061522 | 76 | 195 | 13.0 | 14.0 | 0.00 | 0.00 | 0.00 | 43 | 1011.6 |
| 20260510061019 | 76 | 194 | 10.0 | 15.0 | 0.00 | 0.00 | 0.00 | 41 | 1011.7 |
| 20260510060515 | 76 | 187 | 11.0 | 16.0 | 0.00 | 0.00 | 0.00 | 41 | 1011.5 |
| 20260510060011 | 77 | 190 | 12.0 | 15.0 | 0.00 | 0.00 | 0.00 | 40 | 1011.4 |
| 20260510055507 | 77 | 181 | 10.0 | 16.0 | 0.00 | 0.00 | 0.00 | 39 | 1011.4 |
| 20260510055006 | 77 | 178 | 11.0 | 16.0 | 0.00 | 0.00 | 0.00 | 39 | 1011.5 |
| 20260510054501 | 78 | 176 | 10.0 | 17.0 | 0.00 | 0.00 | 0.00 | 38 | 1011.6 |
| 20260510053956 | 78 | 190 | 10.0 | 15.0 | 0.00 | 0.00 | 0.00 | 38 | 1011.5 |
| 20260510053451 | 78 | 182 | 9.0 | 13.0 | 0.00 | 0.00 | 0.00 | 38 | 1011.5 |
| 20260510052948 | 78 | 194 | 11.0 | 14.0 | 0.00 | 0.00 | 0.00 | 38 | 1011.4 |
| 20260510052444 | 78 | 190 | 10.0 | 15.0 | 0.00 | 0.00 | 0.00 | 37 | 1011.5 |
| 20260510051940 | 79 | 187 | 10.0 | 16.0 | 0.00 | 0.00 | 0.00 | 37 | 1011.3 |
| 20260510051436 | 79 | 185 | 11.0 | 18.0 | 0.00 | 0.00 | 0.00 | 37 | 1011.3 |
| 20260510050933 | 79 | 186 | 13.0 | 18.0 | 0.00 | 0.00 | 0.00 | 37 | 1011.3 |
| 20260510050430 | 79 | 198 | 13.0 | 17.0 | 0.00 | 0.00 | 0.00 | 37 | 1011.4 |
| 20260510045927 | 79 | 195 | 9.0 | 16.0 | 0.00 | 0.00 | 0.00 | 37 | 1011.6 |
| 20260510045424 | 79 | 180 | 11.0 | 15.0 | 0.00 | 0.00 | 0.00 | 37 | 1011.5 |
| 20260510044921 | 79 | 188 | 11.0 | 16.0 | 0.00 | 0.00 | 0.00 | 37 | 1011.4 |
| 20260510044418 | 79 | 182 | 11.0 | 16.0 | 0.00 | 0.00 | 0.00 | 37 | 1011.4 |
| 20260510043915 | 80 | 188 | 12.0 | 15.0 | 0.00 | 0.00 | 0.00 | 37 | 1011.5 |
| 20260510043410 | 80 | 197 | 13.0 | 16.0 | 0.00 | 0.00 | 0.00 | 36 | 1011.5 |
| 20260510042909 | 80 | 190 | 11.0 | 15.0 | 0.00 | 0.00 | 0.00 | 36 | 1011.3 |
| 20260510042404 | 80 | 193 | 12.0 | 16.0 | 0.00 | 0.00 | 0.00 | 35 | 1011.5 |
| 20260510041900 | 80 | 187 | 14.0 | 16.0 | 0.00 | 0.00 | 0.00 | 35 | 1011.4 |
| 20260510041358 | 81 | 185 | 15.0 | 17.0 | 0.00 | 0.00 | 0.00 | 35 | 1011.3 |
| 20260510040855 | 81 | 184 | 15.0 | 19.0 | 0.00 | 0.00 | 0.00 | 34 | 1011.2 |
| 20260510040352 | 81 | 197 | 16.0 | 18.0 | 0.00 | 0.00 | 0.00 | 34 | 1011.3 |
| 20260510035847 | 81 | 186 | 12.0 | 20.0 | 0.00 | 0.00 | 0.00 | 34 | 1011.3 |
| 20260510035343 | 81 | 187 | 14.0 | 17.0 | 0.00 | 0.00 | 0.00 | 35 | 1011.2 |
| 20260510034839 | 81 | 179 | 15.0 | 18.0 | 0.00 | 0.00 | 0.00 | 34 | 1011.3 |
| 20260510034337 | 81 | 180 | 11.0 | 15.0 | 0.00 | 0.00 | 0.00 | 34 | 1011.2 |
| 20260510033833 | 81 | 191 | 12.0 | 13.0 | 0.00 | 0.00 | 0.00 | 34 | 1011.1 |
| 20260510033330 | 81 | 189 | 13.0 | 15.0 | 0.00 | 0.00 | 0.00 | 33 | 1011.3 |
| 20260510032827 | 81 | 186 | 12.0 | 15.0 | 0.00 | 0.00 | 0.00 | 32 | 1011.3 |
| 20260510032324 | 81 | 186 | 8.0 | 13.0 | 0.00 | 0.00 | 0.00 | 32 | 1011.3 |
| 20260510031819 | 81 | 180 | 9.0 | 12.0 | 0.00 | 0.00 | 0.00 | 31 | 1011.1 |
| 20260510031315 | 82 | 180 | 7.0 | 12.0 | 0.00 | 0.00 | 0.00 | 30 | 1011.4 |
| 20260510030809 | 82 | 190 | 9.0 | 13.0 | 0.00 | 0.00 | 0.00 | 30 | 1011.1 |
| 20260510030306 | 82 | 189 | 12.0 | 13.0 | 0.00 | 0.00 | 0.00 | 29 | 1011.2 |
| 20260510025803 | 83 | 180 | 7.0 | 15.0 | 0.00 | 0.00 | 0.00 | 29 | 1011.0 |
| 20260510025301 | 83 | 185 | 11.0 | 14.0 | 0.00 | 0.00 | 0.00 | 28 | 1011.2 |
| 20260510024757 | 83 | 190 | 12.0 | 17.0 | 0.00 | 0.00 | 0.00 | 28 | 1011.0 |
| 20260510024254 | 83 | 188 | 9.0 | 12.0 | 0.00 | 0.00 | 0.00 | 27 | 1010.9 |
| 20260510023750 | 83 | 190 | 10.0 | 13.0 | 0.00 | 0.00 | 0.00 | 27 | 1010.9 |
| 20260510023247 | 84 | 185 | 9.0 | 12.0 | 0.00 | 0.00 | 0.00 | 26 | 1010.9 |
| 20260510022743 | 84 | 187 | 10.0 | 12.0 | 0.00 | 0.00 | 0.00 | 26 | 1010.6 |
| 20260510022243 | 85 | 190 | 8.0 | 11.0 | 0.00 | 0.00 | 0.00 | 26 | 1010.5 |
| 20260510021743 | 85 | 194 | 7.0 | 12.0 | 0.00 | 0.00 | 0.00 | 26 | 1010.4 |
| 20260510021241 | 85 | 193 | 12.0 | 13.0 | 0.00 | 0.00 | 0.00 | 26 | 1010.5 |
| 20260510020736 | 85 | 189 | 10.0 | 13.0 | 0.00 | 0.00 | 0.00 | 26 | 1010.5 |
| 20260510020231 | 86 | 196 | 13.0 | 14.0 | 0.00 | 0.00 | 0.00 | 25 | 1010.3 |
| 20260510015727 | 86 | 188 | 11.0 | 13.0 | 0.00 | 0.00 | 0.00 | 25 | 1010.2 |
| 20260510015224 | 86 | 189 | 12.0 | 13.0 | 0.00 | 0.00 | 0.00 | 25 | 1010.2 |
| 20260510014719 | 86 | 184 | 12.0 | 14.0 | 0.00 | 0.00 | 0.00 | 25 | 1010.3 |
| 20260510014217 | 87 | 194 | 9.0 | 11.0 | 0.00 | 0.00 | 0.00 | 24 | 1010.2 |
| 20260510013712 | 87 | 179 | 10.0 | 13.0 | 0.00 | 0.00 | 0.00 | 24 | 1010.2 |
| 20260510013208 | 88 | 199 | 9.0 | 15.0 | 0.00 | 0.00 | 0.00 | 23 | 1009.9 |
| 20260510012708 | 88 | 189 | 11.0 | 17.0 | 0.00 | 0.00 | 0.00 | 23 | 1010.0 |
| 20260510012203 | 89 | 193 | 10.0 | 16.0 | 0.00 | 0.00 | 0.00 | 22 | 1009.7 |
| 20260510011658 | 89 | 197 | 9.0 | 13.0 | 0.00 | 0.00 | 0.00 | 21 | 1009.9 |
| 20260510011154 | 90 | 189 | 11.0 | 15.0 | 0.00 | 0.00 | 0.00 | 21 | 1009.9 |
| 20260510010650 | 90 | 189 | 16.0 | 16.0 | 0.00 | 0.00 | 0.00 | 20 | 1009.8 |
| 20260510010148 | 91 | 183 | 11.0 | 13.0 | 0.00 | 0.00 | 0.00 | 19 | 1009.8 |
| 20260510005643 | 91 | 209 | 8.0 | 10.0 | 0.00 | 0.00 | 0.00 | 17 | 1009.8 |
| 20260510005140 | 91 | 189 | 13.0 | 15.0 | 0.00 | 0.00 | 0.00 | 17 | 1010.0 |
| 20260510004639 | 92 | 197 | 8.0 | 15.0 | 0.00 | 0.00 | 0.00 | 17 | 1009.6 |
| 20260510004137 | 92 | 191 | 9.0 | 11.0 | 0.00 | 0.00 | 0.00 | 17 | 1009.8 |
| 20260510003633 | 92 | 205 | 4.0 | 10.0 | 0.00 | 0.00 | 0.00 | 17 | 1009.8 |
| 20260510003129 | 92 | 194 | 6.0 | 8.0 | 0.00 | 0.00 | 0.00 | 17 | 1010.0 |
| 20260510002629 | 92 | 213 | 4.0 | 9.0 | 0.00 | 0.00 | 0.00 | 17 | 1009.7 |
| 20260510002126 | 92 | 199 | 5.0 | 12.0 | 0.00 | 0.00 | 0.00 | 17 | 1009.9 |
| 20260510001623 | 93 | 204 | 12.0 | 13.0 | 0.00 | 0.00 | 0.00 | 17 | 1009.8 |
| 20260510001122 | 92 | 213 | 7.0 | 12.0 | 0.00 | 0.00 | 0.00 | 17 | 1010.1 |
| 20260510000622 | 93 | 207 | 7.0 | 11.0 | 0.00 | 0.00 | 0.00 | 17 | 1009.7 |
| 20260510000120 | 93 | 191 | 6.0 | 11.0 | 0.00 | 0.00 | 0.00 | 16 | 1009.9 |
| 20260509235616 | 93 | 200 | 4.0 | 12.0 | 0.00 | 0.00 | 0.00 | 16 | 1010.0 |
| 20260509235113 | 93 | 203 | 7.0 | 12.0 | 0.00 | 0.00 | 0.00 | 16 | 1010.0 |
| 20260509234608 | 93 | 225 | 7.0 | 11.0 | 0.00 | 0.00 | 0.00 | 17 | 1009.9 |
| 20260509234107 | 93 | 174 | 9.0 | 13.0 | 0.00 | 0.00 | 0.00 | 17 | 1010.0 |
| 20260509233604 | 94 | 187 | 11.0 | 11.0 | 0.00 | 0.00 | 0.00 | 18 | 1010.1 |
| 20260509233101 | 93 | 182 | 5.0 | 9.0 | 0.00 | 0.00 | 0.00 | 18 | 1010.0 |
| 20260509232557 | 93 | 193 | 7.0 | 14.0 | 0.00 | 0.00 | 0.00 | 18 | 1010.0 |
| 20260509232054 | 93 | 193 | 7.0 | 9.0 | 0.00 | 0.00 | 0.00 | 17 | 1010.0 |
| 20260509231550 | 93 | 200 | 5.0 | 9.0 | 0.00 | 0.00 | 0.00 | 18 | 1010.1 |
| 20260509231048 | 94 | 243 | 9.0 | 11.0 | 0.00 | 0.00 | 0.00 | 17 | 1010.2 |
| 20260509230545 | 94 | 230 | 6.0 | 8.0 | 0.00 | 0.00 | 0.00 | 18 | 1010.2 |
| 20260509230042 | 94 | 232 | 5.0 | 13.0 | 0.00 | 0.00 | 0.00 | 18 | 1010.3 |
| 20260509225537 | 94 | 219 | 6.0 | 13.0 | 0.00 | 0.00 | 0.00 | 18 | 1010.2 |
| 20260509225033 | 94 | 214 | 6.0 | 12.0 | 0.00 | 0.00 | 0.00 | 17 | 1010.4 |
| 20260509224529 | 94 | 226 | 12.0 | 12.0 | 0.00 | 0.00 | 0.00 | 17 | 1010.1 |
| 20260509224026 | 93 | 238 | 6.0 | 16.0 | 0.00 | 0.00 | 0.00 | 19 | 1010.2 |
| 20260509223523 | 93 | 234 | 13.0 | 15.0 | 0.00 | 0.00 | 0.00 | 19 | 1010.3 |
| 20260509223021 | 92 | 230 | 11.0 | 20.0 | 0.00 | 0.00 | 0.00 | 18 | 1010.5 |
| 20260509222516 | 94 | 246 | 9.0 | 18.0 | 0.00 | 0.00 | 0.00 | 18 | 1010.2 |
| 20260509222012 | 93 | 236 | 4.0 | 10.0 | 0.00 | 0.00 | 0.00 | 20 | 1010.3 |
| 20260509221508 | 93 | 195 | 8.0 | 12.0 | 0.00 | 0.00 | 0.00 | 19 | 1010.4 |
| 20260509221004 | 93 | 211 | 6.0 | 12.0 | 0.00 | 0.00 | 0.00 | 20 | 1010.5 |
| 20260509220500 | 92 | 188 | 4.0 | 10.0 | 0.00 | 0.00 | 0.00 | 21 | 1010.4 |
| 20260509215956 | 92 | 197 | 9.0 | 20.0 | 0.00 | 0.00 | 0.00 | 21 | 1010.4 |
| 20260509215452 | 92 | 210 | 3.0 | 7.0 | 0.00 | 0.00 | 0.00 | 20 | 1010.6 |
| 20260509214950 | 92 | 192 | 9.0 | 13.0 | 0.00 | 0.00 | 0.00 | 20 | 1010.4 |
| 20260509214447 | 93 | 189 | 8.0 | 12.0 | 0.00 | 0.00 | 0.00 | 19 | 1010.5 |
| 20260509213943 | 92 | 194 | 7.0 | 7.0 | 0.00 | 0.00 | 0.00 | 19 | 1010.6 |
| 20260509213439 | 92 | 194 | 15.0 | 19.0 | 0.00 | 0.00 | 0.00 | 20 | 1010.6 |
| 20260509212937 | 92 | 138 | 6.0 | 8.0 | 0.00 | 0.00 | 0.00 | 19 | 1010.6 |
| 20260509212434 | 92 | 186 | 13.0 | 15.0 | 0.00 | 0.00 | 0.00 | 20 | 1011.0 |
| 20260509211930 | 92 | 180 | 7.0 | 11.0 | 0.00 | 0.00 | 0.00 | 21 | 1011.2 |
| 20260509211426 | 93 | 199 | 10.0 | 12.0 | 0.00 | 0.00 | 0.00 | 20 | 1011.1 |
| 20260509210923 | 92 | 191 | 8.0 | 14.0 | 0.00 | 0.00 | 0.00 | 20 | 1011.2 |
| 20260509210420 | 91 | 180 | 8.0 | 13.0 | 0.00 | 0.00 | 0.00 | 21 | 1011.1 |
| 20260509205915 | 91 | 195 | 12.0 | 20.0 | 0.00 | 0.00 | 0.00 | 22 | 1011.4 |
| 20260509205415 | 91 | 194 | 10.0 | 16.0 | 0.00 | 0.00 | 0.00 | 21 | 1011.4 |
| 20260509204911 | 92 | 177 | 12.0 | 19.0 | 0.00 | 0.00 | 0.00 | 20 | 1011.5 |
| 20260509204408 | 92 | 233 | 6.0 | 14.0 | 0.00 | 0.00 | 0.00 | 22 | 1011.6 |
| 20260509203904 | 91 | 253 | 8.0 | 10.0 | 0.00 | 0.00 | 0.00 | 22 | 1011.8 |
| 20260509203400 | 91 | 239 | 8.0 | 14.0 | 0.00 | 0.00 | 0.00 | 21 | 1011.9 |
| 20260509202858 | 91 | 198 | 11.0 | 15.0 | 0.00 | 0.00 | 0.00 | 21 | 1011.9 |
| 20260509202353 | 91 | 193 | 3.0 | 10.0 | 0.00 | 0.00 | 0.00 | 21 | 1012.2 |
| 20260509201849 | 92 | 234 | 4.0 | 11.0 | 0.00 | 0.00 | 0.00 | 21 | 1012.2 |
| 20260509201344 | 90 | 239 | 7.0 | 12.0 | 0.00 | 0.00 | 0.00 | 25 | 1012.0 |
| 20260509200841 | 91 | 187 | 8.0 | 12.0 | 0.00 | 0.00 | 0.00 | 25 | 1012.2 |
| 20260509200336 | 91 | 189 | 6.0 | 10.0 | 0.00 | 0.00 | 0.00 | 26 | 1012.5 |
| 20260509195833 | 91 | 237 | 10.0 | 11.0 | 0.00 | 0.00 | 0.00 | 26 | 1012.4 |
| 20260509195333 | 89 | 191 | 9.0 | 10.0 | 0.00 | 0.00 | 0.00 | 25 | 1012.3 |
| 20260509194833 | 89 | 178 | 5.0 | 12.0 | 0.00 | 0.00 | 0.00 | 26 | 1012.5 |
| 20260509194330 | 89 | 192 | 11.0 | 13.0 | 0.00 | 0.00 | 0.00 | 26 | 1012.5 |
| 20260509193827 | 89 | 177 | 8.0 | 16.0 | 0.00 | 0.00 | 0.00 | 26 | 1012.6 |
| 20260509193326 | 89 | 209 | 14.0 | 21.0 | 0.00 | 0.00 | 0.00 | 26 | 1012.7 |
| 20260509192823 | 89 | 188 | 4.0 | 11.0 | 0.00 | 0.00 | 0.00 | 28 | 1012.7 |
| 20260509192319 | 89 | 187 | 12.0 | 16.0 | 0.00 | 0.00 | 0.00 | 28 | 1012.8 |
| 20260509191814 | 90 | 193 | 5.0 | 12.0 | 0.00 | 0.00 | 0.00 | 28 | 1012.8 |
| 20260509191310 | 89 | 188 | 10.0 | 13.0 | 0.00 | 0.00 | 0.00 | 27 | 1012.7 |
| 20260509190806 | 89 | 138 | 5.0 | 13.0 | 0.00 | 0.00 | 0.00 | 28 | 1012.7 |
| 20260509190304 | 88 | 185 | 4.0 | 15.0 | 0.00 | 0.00 | 0.00 | 27 | 1013.1 |
| 20260509185801 | 88 | 176 | 7.0 | 14.0 | 0.00 | 0.00 | 0.00 | 28 | 1013.0 |
| 20260509185257 | 89 | 205 | 10.0 | 14.0 | 0.00 | 0.00 | 0.00 | 28 | 1013.0 |
| 20260509184755 | 88 | 196 | 10.0 | 14.0 | 0.00 | 0.00 | 0.00 | 29 | 1012.9 |
| 20260509184252 | 88 | 162 | 8.0 | 13.0 | 0.00 | 0.00 | 0.00 | 29 | 1013.2 |
| 20260509183748 | 87 | 193 | 8.0 | 12.0 | 0.00 | 0.00 | 0.00 | 30 | 1013.0 |
| 20260509183244 | 88 | 172 | 5.0 | 13.0 | 0.00 | 0.00 | 0.00 | 29 | 1013.2 |
| 20260509182739 | 88 | 216 | 4.0 | 14.0 | 0.00 | 0.00 | 0.00 | 30 | 1013.3 |
| 20260509182237 | 88 | 174 | 8.0 | 16.0 | 0.00 | 0.00 | 0.00 | 30 | 1013.5 |
| 20260509181734 | 88 | 192 | 12.0 | 17.0 | 0.00 | 0.00 | 0.00 | 30 | 1013.6 |
| 20260509181232 | 87 | 234 | 5.0 | 10.0 | 0.00 | 0.00 | 0.00 | 30 | 1013.6 |
| 20260509180729 | 87 | 203 | 9.0 | 11.0 | 0.00 | 0.00 | 0.00 | 31 | 1013.3 |
| 20260509180225 | 87 | 201 | 5.0 | 6.0 | 0.00 | 0.00 | 0.00 | 32 | 1013.6 |
| 20260509175721 | 87 | 243 | 6.0 | 6.0 | 0.00 | 0.00 | 0.00 | 32 | 1013.7 |
| 20260509175218 | 87 | 195 | 9.0 | 13.0 | 0.00 | 0.00 | 0.00 | 31 | 1013.7 |
| 20260509174714 | 86 | 222 | 4.0 | 6.0 | 0.00 | 0.00 | 0.00 | 34 | 1013.8 |
| 20260509174209 | 86 | 194 | 7.0 | 10.0 | 0.00 | 0.00 | 0.00 | 34 | 1013.9 |
| 20260509173705 | 85 | 202 | 5.0 | 11.0 | 0.00 | 0.00 | 0.00 | 34 | 1014.1 |
| 20260509173201 | 85 | 187 | 7.0 | 7.0 | 0.00 | 0.00 | 0.00 | 34 | 1013.9 |
| 20260509172657 | 86 | 259 | 12.0 | 12.0 | 0.00 | 0.00 | 0.00 | 34 | 1013.9 |
| 20260509172154 | 86 | 202 | 4.0 | 7.0 | 0.00 | 0.00 | 0.00 | 35 | 1014.0 |
| 20260509171649 | 85 | 225 | 4.0 | 11.0 | 0.00 | 0.00 | 0.00 | 35 | 1014.1 |
| 20260509171146 | 85 | 205 | 2.0 | 6.0 | 0.00 | 0.00 | 0.00 | 36 | 1014.3 |
| 20260509170643 | 84 | 204 | 5.0 | 11.0 | 0.00 | 0.00 | 0.00 | 36 | 1014.2 |
| 20260509170139 | 84 | 207 | 4.0 | 12.0 | 0.00 | 0.00 | 0.00 | 37 | 1014.0 |
| 20260509165637 | 83 | 193 | 5.0 | 9.0 | 0.00 | 0.00 | 0.00 | 38 | 1014.2 |
| 20260509165133 | 84 | 233 | 9.0 | 12.0 | 0.00 | 0.00 | 0.00 | 38 | 1014.4 |
| 20260509164629 | 83 | 272 | 3.0 | 9.0 | 0.00 | 0.00 | 0.00 | 39 | 1014.3 |
| 20260509164125 | 83 | 186 | 5.0 | 11.0 | 0.00 | 0.00 | 0.00 | 39 | 1014.3 |
| 20260509163623 | 83 | 234 | 7.0 | 9.0 | 0.00 | 0.00 | 0.00 | 40 | 1014.4 |
| 20260509163118 | 82 | 227 | 4.0 | 11.0 | 0.00 | 0.00 | 0.00 | 43 | 1014.4 |
| 20260509162616 | 82 | 201 | 6.0 | 13.0 | 0.00 | 0.00 | 0.00 | 42 | 1014.5 |
| 20260509162112 | 81 | 195 | 7.0 | 11.0 | 0.00 | 0.00 | 0.00 | 43 | 1014.6 |
| 20260509161608 | 81 | 188 | 10.0 | 11.0 | 0.00 | 0.00 | 0.00 | 44 | 1014.4 |
| 20260509161108 | 80 | 194 | 9.0 | 13.0 | 0.00 | 0.00 | 0.00 | 44 | 1014.6 |
| 20260509160604 | 80 | 192 | 9.0 | 13.0 | 0.00 | 0.00 | 0.00 | 45 | 1014.5 |
| 20260509160059 | 80 | 190 | 8.0 | 13.0 | 0.00 | 0.00 | 0.00 | 45 | 1014.6 |
| 20260509155556 | 80 | 200 | 6.0 | 6.0 | 0.00 | 0.00 | 0.00 | 45 | 1014.5 |
| 20260509155053 | 80 | 208 | 6.0 | 9.0 | 0.00 | 0.00 | 0.00 | 46 | 1014.3 |
| 20260509154549 | 79 | 203 | 5.0 | 9.0 | 0.00 | 0.00 | 0.00 | 44 | 1014.6 |
| 20260509154046 | 80 | 196 | 9.0 | 11.0 | 0.00 | 0.00 | 0.00 | 43 | 1014.8 |
| 20260509153543 | 79 | 238 | 4.0 | 8.0 | 0.00 | 0.00 | 0.00 | 45 | 1014.5 |
| 20260509153040 | 79 | 203 | 8.0 | 11.0 | 0.00 | 0.00 | 0.00 | 45 | 1014.8 |
| 20260509152536 | 78 | 210 | 7.0 | 14.0 | 0.00 | 0.00 | 0.00 | 47 | 1014.9 |
| 20260509152033 | 78 | 224 | 4.0 | 9.0 | 0.00 | 0.00 | 0.00 | 47 | 1014.9 |
| 20260509151529 | 78 | 192 | 6.0 | 12.0 | 0.00 | 0.00 | 0.00 | 47 | 1015.0 |
| 20260509151027 | 78 | 184 | 4.0 | 6.0 | 0.00 | 0.00 | 0.00 | 48 | 1015.0 |
| 20260509150524 | 78 | 201 | 4.0 | 6.0 | 0.00 | 0.00 | 0.00 | 48 | 1015.2 |
| 20260509150023 | 77 | 219 | 5.0 | 11.0 | 0.00 | 0.00 | 0.00 | 51 | 1015.0 |
| 20260509145518 | 76 | 191 | 8.0 | 9.0 | 0.00 | 0.00 | 0.00 | 52 | 1015.0 |
| 20260509145013 | 76 | 191 | 7.0 | 10.0 | 0.00 | 0.00 | 0.00 | 54 | 1015.0 |
| 20260509144511 | 75 | 229 | 4.0 | 6.0 | 0.00 | 0.00 | 0.00 | 58 | 1015.0 |
| 20260509144008 | 74 | 216 | 3.0 | 8.0 | 0.00 | 0.00 | 0.00 | 61 | 1015.0 |
| 20260509143505 | 74 | 181 | 5.0 | 8.0 | 0.00 | 0.00 | 0.00 | 61 | 1015.1 |
| 20260509143002 | 73 | 189 | 4.0 | 6.0 | 0.00 | 0.00 | 0.00 | 64 | 1015.0 |
| 20260509142458 | 73 | 183 | 5.0 | 7.0 | 0.00 | 0.00 | 0.00 | 65 | 1014.9 |
| 20260509141953 | 72 | 243 | 4.0 | 7.0 | 0.00 | 0.00 | 0.00 | 68 | 1015.0 |
| 20260509141450 | 72 | 212 | 4.0 | 5.0 | 0.00 | 0.00 | 0.00 | 68 | 1015.0 |
| 20260509140947 | 71 | 211 | 2.0 | 7.0 | 0.00 | 0.00 | 0.00 | 71 | 1014.8 |
| 20260509140443 | 71 | 199 | 2.0 | 6.0 | 0.00 | 0.00 | 0.00 | 72 | 1015.1 |
| 20260509135942 | 70 | 225 | 4.0 | 5.0 | 0.00 | 0.00 | 0.00 | 72 | 1015.1 |
| 20260509135439 | 70 | 207 | 2.0 | 4.0 | 0.00 | 0.00 | 0.00 | 74 | 1015.3 |
| 20260509134936 | 69 | 237 | 5.0 | 6.0 | 0.00 | 0.00 | 0.00 | 75 | 1015.3 |
| 20260509134433 | 69 | 203 | 2.0 | 4.0 | 0.00 | 0.00 | 0.00 | 77 | 1015.0 |
| 20260509133931 | 68 | 178 | 4.0 | 5.0 | 0.00 | 0.00 | 0.00 | 78 | 1015.0 |
| 20260509133427 | 67 | 210 | 2.0 | 6.0 | 0.00 | 0.00 | 0.00 | 80 | 1014.9 |
| 20260509132925 | 67 | 177 | 5.0 | 7.0 | 0.00 | 0.00 | 0.00 | 81 | 1014.8 |
| 20260509132423 | 66 | 210 | 3.0 | 5.0 | 0.00 | 0.00 | 0.00 | 82 | 1014.9 |
| 20260509131920 | 65 | 185 | 5.0 | 6.0 | 0.00 | 0.00 | 0.00 | 83 | 1014.5 |
| 20260509131417 | 65 | 184 | 4.0 | 6.0 | 0.00 | 0.00 | 0.00 | 83 | 1014.8 |
| 20260509130914 | 64 | 183 | 2.0 | 4.0 | 0.00 | 0.00 | 0.00 | 84 | 1014.6 |
| 20260509130409 | 64 | 231 | 2.0 | 6.0 | 0.00 | 0.00 | 0.00 | 85 | 1014.3 |
| 20260509125906 | 64 | 216 | 1.0 | 3.0 | 0.00 | 0.00 | 0.00 | 85 | 1014.3 |
| 20260509125403 | 63 | 178 | 2.0 | 3.0 | 0.00 | 0.00 | 0.00 | 86 | 1014.4 |
| 20260509124859 | 62 | 164 | 2.0 | 5.0 | 0.00 | 0.00 | 0.00 | 87 | 1014.2 |
| 20260509124356 | 62 | 188 | 4.0 | 5.0 | 0.00 | 0.00 | 0.00 | 88 | 1014.4 |
| 20260509123854 | 62 | 180 | 3.0 | 4.0 | 0.00 | 0.00 | 0.00 | 89 | 1014.4 |
| 20260509123351 | 61 | 193 | 2.0 | 3.0 | 0.00 | 0.00 | 0.00 | 89 | 1014.3 |
| 20260509122846 | 61 | 188 | 2.0 | 2.0 | 0.00 | 0.00 | 0.00 | 89 | 1014.3 |
| 20260509122343 | 60 | 269 | 0.0 | 1.0 | 0.00 | 0.00 | 0.00 | 89 | 1014.3 |
| 20260509121840 | 60 | 344 | 1.0 | 2.0 | 0.00 | 0.00 | 0.00 | 89 | 1014.2 |
| 20260509121337 | 60 | 59 | 1.0 | 2.0 | 0.00 | 0.00 | 0.00 | 89 | 1014.0 |
| 20260509120836 | 60 | 135 | 0.0 | 2.0 | 0.00 | 0.00 | 0.00 | 89 | 1014.1 |
| 20260509120333 | 60 | 205 | 0.0 | 2.0 | 0.00 | 0.00 | 0.00 | 88 | 1014.0 |
| 20260509115831 | 61 | 244 | 2.0 | 2.0 | 0.00 | 0.00 | 0.00 | 88 | 1013.8 |
| 20260509115328 | 61 | 221 | 1.0 | 2.0 | 0.00 | 0.00 | 0.00 | 88 | 1013.8 |
| 20260509114826 | 61 | 201 | 1.0 | 3.0 | 0.00 | 0.00 | 0.00 | 88 | 1013.7 |
| 20260509114324 | 61 | 190 | 2.0 | 2.0 | 0.00 | 0.00 | 0.00 | 88 | 1013.6 |
| 20260509113823 | 61 | 214 | 2.0 | 2.0 | 0.00 | 0.00 | 0.00 | 88 | 1013.6 |
| 20260509113319 | 61 | 184 | 2.0 | 3.0 | 0.00 | 0.00 | 0.00 | 88 | 1013.3 |
| 20260509112816 | 61 | 223 | 4.0 | 5.0 | 0.00 | 0.00 | 0.00 | 88 | 1013.3 |
| 20260509112314 | 61 | 228 | 3.0 | 4.0 | 0.00 | 0.00 | 0.00 | 87 | 1013.6 |
| 20260509111810 | 61 | 266 | 2.0 | 3.0 | 0.00 | 0.00 | 0.00 | 87 | 1013.7 |
| 20260509111307 | 62 | 303 | 2.0 | 2.0 | 0.00 | 0.00 | 0.00 | 86 | 1013.6 |
| 20260509110805 | 61 | 169 | 2.0 | 2.0 | 0.00 | 0.00 | 0.00 | 87 | 1013.5 |
| 20260509110301 | 61 | 249 | 2.0 | 4.0 | 0.00 | 0.00 | 0.00 | 86 | 1013.2 |
| 20260509105759 | 62 | 328 | 2.0 | 2.0 | 0.00 | 0.00 | 0.00 | 85 | 1013.1 |
| 20260509105257 | 62 | 185 | 3.0 | 4.0 | 0.00 | 0.00 | 0.00 | 86 | 1013.1 |
| 20260509104753 | 61 | 191 | 5.0 | 5.0 | 0.00 | 0.00 | 0.00 | 86 | 1012.9 |
| 20260509104250 | 62 | 189 | 1.0 | 5.0 | 0.00 | 0.00 | 0.00 | 85 | 1012.9 |
| 20260509103749 | 62 | 187 | 2.0 | 4.0 | 0.00 | 0.00 | 0.00 | 85 | 1013.1 |
| 20260509103245 | 62 | 179 | 5.0 | 6.0 | 0.00 | 0.00 | 0.00 | 85 | 1013.1 |
| 20260509102744 | 62 | 174 | 3.0 | 3.0 | 0.00 | 0.00 | 0.00 | 85 | 1013.2 |
| 20260509102240 | 62 | 223 | 1.0 | 4.0 | 0.00 | 0.00 | 0.00 | 85 | 1013.3 |
| 20260509101737 | 62 | 194 | 0.0 | 2.0 | 0.00 | 0.00 | 0.00 | 84 | 1013.0 |
| 20260509101233 | 62 | 228 | 2.0 | 3.0 | 0.00 | 0.00 | 0.00 | 83 | 1013.2 |
| 20260509100731 | 63 | 179 | 4.0 | 5.0 | 0.00 | 0.00 | 0.00 | 84 | 1013.1 |
| 20260509100228 | 62 | 189 | 5.0 | 5.0 | 0.00 | 0.00 | 0.00 | 83 | 1013.1 |
| 20260509095724 | 63 | 226 | 3.0 | 4.0 | 0.00 | 0.00 | 0.00 | 82 | 1013.3 |
| 20260509095222 | 63 | 182 | 4.0 | 4.0 | 0.00 | 0.00 | 0.00 | 82 | 1013.2 |
| 20260509094718 | 63 | 178 | 3.0 | 4.0 | 0.00 | 0.00 | 0.00 | 82 | 1013.3 |
| 20260509094215 | 63 | 171 | 0.0 | 4.0 | 0.00 | 0.00 | 0.00 | 81 | 1013.1 |
| 20260509093714 | 63 | 176 | 4.0 | 5.0 | 0.00 | 0.00 | 0.00 | 82 | 1013.2 |
| 20260509093210 | 63 | 187 | 4.0 | 5.0 | 0.00 | 0.00 | 0.00 | 81 | 1013.2 |
| 20260509092708 | 64 | 231 | 2.0 | 3.0 | 0.00 | 0.00 | 0.00 | 80 | 1013.2 |
| 20260509092206 | 64 | 167 | 3.0 | 6.0 | 0.00 | 0.00 | 0.00 | 80 | 1013.1 |
| 20260509091704 | 64 | 159 | 3.0 | 7.0 | 0.00 | 0.00 | 0.00 | 80 | 1013.1 |
| 20260509091200 | 64 | 184 | 5.0 | 6.0 | 0.00 | 0.00 | 0.00 | 80 | 1013.3 |
| 20260509090658 | 64 | 212 | 2.0 | 4.0 | 0.00 | 0.00 | 0.00 | 80 | 1013.2 |
| 20260509090155 | 64 | 163 | 3.0 | 6.0 | 0.00 | 0.00 | 0.00 | 80 | 1013.2 |
| 20260509085652 | 64 | 162 | 5.0 | 7.0 | 0.00 | 0.00 | 0.00 | 80 | 1013.2 |
| 20260509085148 | 65 | 139 | 4.0 | 5.0 | 0.00 | 0.00 | 0.00 | 79 | 1013.2 |
| 20260509084646 | 65 | 162 | 6.0 | 6.0 | 0.00 | 0.00 | 0.00 | 79 | 1013.0 |
| 20260509084143 | 65 | 180 | 4.0 | 6.0 | 0.00 | 0.00 | 0.00 | 78 | 1013.0 |
| 20260509083641 | 65 | 171 | 4.0 | 6.0 | 0.00 | 0.00 | 0.00 | 78 | 1013.2 |
| 20260509083136 | 65 | 160 | 4.0 | 6.0 | 0.00 | 0.00 | 0.00 | 78 | 1013.2 |